GW5079 Weather Reports


time (UTC)temp
C
wind
direction
speed
KPH
gust
KPH
rain 1hr
cm
rain 24hr
cm
rain mn
cm
humidity
%
barometer
mb
20260506070726 12 312 8.0 11.3 0.00 0.00 0.00 46 1016.4
20260506070223 12 303 11.3 14.5 0.00 0.05 0.05 45 1016.5
20260506062200 13 319 6.4 9.7 0.00 0.05 0.05 40 1016.6
20260506061656 13 329 8.0 9.7 0.00 0.05 0.05 40 1016.4
20260506061154 13 347 9.7 11.3 0.00 0.05 0.05 40 1016.7
20260506060652 13 65 6.4 9.7 0.00 0.05 0.05 40 1016.5
20260506060149 13 45 8.0 11.3 0.00 0.05 0.05 39 1016.3
20260506051120 14 53 1.6 3.2 0.00 0.05 0.05 38 1016.4
20260506050619 14 31 4.8 4.8 0.00 0.05 0.05 38 1016.4
20260506050116 14 29 3.2 4.8 0.00 0.05 0.05 38 1016.4
20260506045109 14 53 4.8 4.8 0.00 0.05 0.05 39 1016.2
20260506044607 14 50 1.6 1.6 0.00 0.05 0.05 39 1016.3
20260506044103 14 56 1.6 1.6 0.00 0.05 0.05 40 1016.2
20260506043601 14 59 1.6 1.6 0.00 0.05 0.05 40 1016.0
20260506043059 14 59 0.0 1.6 0.00 0.05 0.05 40 1015.8
20260506042558 14 54 1.6 3.2 0.00 0.05 0.05 40 1015.9
20260506042055 15 59 1.6 1.6 0.00 0.05 0.05 41 1015.9
20260506041554 15 39 4.8 4.8 0.00 0.05 0.05 42 1015.8
20260506041050 15 48 3.2 3.2 0.00 0.05 0.05 42 1015.6
20260506040548 15 48 1.6 3.2 0.00 0.05 0.05 42 1015.7
20260506040044 15 59 1.6 3.2 0.00 0.05 0.05 42 1015.5
20260506035541 15 35 3.2 3.2 0.00 0.05 0.05 42 1015.7
20260506035038 15 52 3.2 3.2 0.00 0.05 0.05 41 1015.4
20260506034535 15 15 6.4 6.4 0.00 0.05 0.05 41 1015.4
20260506034032 15 38 3.2 4.8 0.00 0.05 0.05 41 1015.4
20260506033529 15 59 1.6 3.2 0.00 0.05 0.05 41 1015.3
20260506033026 15 17 3.2 4.8 0.00 0.05 0.05 41 1015.0
20260506032524 16 309 4.8 6.4 0.00 0.05 0.05 41 1014.9
20260506032020 16 92 3.2 3.2 0.00 0.05 0.05 40 1014.8
20260506031518 16 300 9.7 12.9 0.00 0.05 0.05 40 1014.7
20260506031015 16 2 1.6 3.2 0.00 0.05 0.05 39 1014.6
20260506030513 16 30 3.2 4.8 0.00 0.05 0.05 38 1014.6
20260506030010 16 43 3.2 4.8 0.00 0.05 0.05 36 1014.5
20260506025506 16 313 8.0 9.7 0.00 0.05 0.05 34 1014.5
20260506025003 17 299 9.7 11.3 0.00 0.05 0.05 34 1014.2
20260506024459 17 32 3.2 3.2 0.00 0.05 0.05 33 1014.3
20260506023955 17 297 4.8 9.7 0.00 0.05 0.05 33 1014.0
20260506023452 17 23 6.4 6.4 0.00 0.05 0.05 33 1014.0
20260506022949 17 332 3.2 4.8 0.00 0.05 0.05 33 1013.8
20260506022447 17 289 9.7 11.3 0.00 0.05 0.05 33 1014.1
20260506021945 17 190 6.4 6.4 0.00 0.05 0.05 33 1013.7
20260506021442 17 20 4.8 4.8 0.00 0.05 0.05 33 1013.5
20260506020939 17 339 11.3 14.5 0.00 0.05 0.05 32 1013.5
20260506020436 18 303 8.0 11.3 0.00 0.05 0.05 32 1013.4
20260506015933 18 270 9.7 9.7 0.00 0.05 0.05 31 1013.4
20260506015431 18 152 11.3 16.1 0.00 0.05 0.05 31 1013.4
20260506014928 18 319 16.1 22.5 0.00 0.05 0.05 31 1013.3
20260506014425 18 287 6.4 6.4 0.00 0.05 0.05 31 1013.2
20260506013921 18 239 11.3 12.9 0.00 0.05 0.05 30 1013.2
20260506013419 19 285 9.7 12.9 0.00 0.05 0.05 28 1013.2
20260506012915 19 71 3.2 3.2 0.00 0.05 0.05 27 1013.0
20260506012412 20 204 11.3 16.1 0.00 0.05 0.05 26 1013.1
20260506011909 20 54 9.7 12.9 0.00 0.05 0.05 26 1013.0
20260506011406 20 282 16.1 20.9 0.00 0.05 0.05 25 1013.0
20260506010903 20 202 9.7 11.3 0.00 0.05 0.05 25 1013.0
20260506010401 20 219 11.3 12.9 0.00 0.05 0.05 26 1012.7
20260506005858 20 206 9.7 12.9 0.00 0.05 0.05 26 1013.0
20260506005355 20 308 9.7 11.3 0.00 0.05 0.05 27 1012.7
20260506004850 20 225 14.5 17.7 0.00 0.05 0.05 27 1012.5
20260506004348 21 271 9.7 14.5 0.00 0.05 0.05 27 1012.6
20260506003844 21 334 11.3 12.9 0.00 0.05 0.05 27 1012.4
20260506003341 20 3 9.7 12.9 0.00 0.05 0.05 27 1012.4
20260506002837 20 276 11.3 17.7 0.00 0.05 0.05 28 1012.6
20260506002334 20 221 14.5 16.1 0.00 0.05 0.05 28 1012.4
20260506001829 21 309 14.5 22.5 0.00 0.05 0.05 28 1012.4
20260506001327 21 163 14.5 16.1 0.00 0.05 0.05 27 1012.5
20260506000823 21 142 19.3 27.4 0.00 0.05 0.05 26 1012.5
20260506000323 21 305 16.1 22.5 0.00 0.05 0.05 27 1012.4
20260505235818 21 245 14.5 17.7 0.00 0.05 0.05 28 1012.4
20260505235315 21 273 12.9 16.1 0.00 0.05 0.05 27 1012.4
20260505234812 21 242 14.5 17.7 0.00 0.05 0.05 26 1012.4
20260505234310 21 246 20.9 38.6 0.00 0.05 0.05 25 1012.4
20260505233807 21 264 17.7 24.1 0.00 0.05 0.05 26 1012.2
20260505233305 21 271 17.7 24.1 0.00 0.05 0.05 26 1012.3
20260505232801 21 254 9.7 12.9 0.00 0.05 0.05 27 1012.1
20260505232259 21 190 11.3 12.9 0.00 0.05 0.05 26 1012.3
20260505231755 22 237 17.7 24.1 0.00 0.05 0.05 25 1012.3
20260505231254 22 236 14.5 16.1 0.00 0.05 0.05 26 1012.2
20260505230752 22 139 9.7 11.3 0.00 0.05 0.05 25 1011.9
20260505230248 22 260 11.3 16.1 0.00 0.05 0.05 24 1012.2
20260505225745 22 246 16.1 30.6 0.00 0.05 0.05 23 1012.2
20260505225242 22 245 9.7 12.9 0.00 0.05 0.05 25 1012.2
20260505224737 22 238 14.5 22.5 0.00 0.05 0.05 25 1012.3
20260505224235 22 167 9.7 14.5 0.00 0.05 0.05 27 1012.3
20260505223732 22 197 16.1 27.4 0.00 0.05 0.05 26 1012.3
20260505223229 22 215 16.1 22.5 0.00 0.05 0.05 25 1012.2
20260505222725 22 276 11.3 16.1 0.00 0.05 0.05 26 1012.3
20260505222221 22 248 14.5 16.1 0.00 0.05 0.05 28 1012.3
20260505221718 21 81 11.3 17.7 0.00 0.05 0.05 27 1012.3
20260505221215 22 155 16.1 20.9 0.00 0.05 0.05 26 1012.5
20260505220712 21 246 6.4 11.3 0.00 0.05 0.05 26 1012.6
20260505220210 22 159 12.9 16.1 0.00 0.05 0.05 26 1012.6
20260505215707 22 257 12.9 16.1 0.00 0.05 0.05 26 1012.7
20260505215205 22 264 12.9 20.9 0.00 0.05 0.05 29 1012.6
20260505214702 21 261 11.3 12.9 0.00 0.05 0.05 28 1012.9
20260505214159 22 238 17.7 20.9 0.00 0.05 0.05 27 1013.0
20260505213657 21 251 12.9 14.5 0.00 0.05 0.05 26 1013.1
20260505213154 21 243 16.1 24.1 0.00 0.05 0.05 27 1013.1
20260505212649 22 260 17.7 22.5 0.00 0.05 0.05 29 1013.3
20260505212147 22 282 20.9 24.1 0.00 0.05 0.05 27 1013.3
20260505211644 22 255 14.5 22.5 0.00 0.05 0.05 28 1013.1
20260505211141 22 281 16.1 24.1 0.00 0.05 0.05 28 1013.4
20260505210638 21 281 14.5 17.7 0.00 0.05 0.05 29 1013.3
20260505210135 21 180 9.7 14.5 0.00 0.05 0.05 30 1013.3
20260505205632 22 168 17.7 24.1 0.00 0.05 0.05 29 1013.5
20260505205130 21 173 12.9 20.9 0.00 0.05 0.05 31 1013.5
20260505204627 21 167 8.0 11.3 0.00 0.05 0.05 31 1013.7
20260505204125 22 276 22.5 27.4 0.00 0.05 0.05 32 1013.5
20260505203621 22 241 8.0 12.9 0.00 0.05 0.05 31 1013.7
20260505203119 21 255 17.7 25.7 0.00 0.05 0.05 32 1013.7
20260505202614 21 334 17.7 22.5 0.00 0.05 0.05 31 1013.7
20260505202110 21 173 9.7 14.5 0.00 0.05 0.05 31 1013.5
20260505201607 21 263 19.3 25.7 0.00 0.05 0.05 32 1013.5
20260505201105 21 231 17.7 17.7 0.00 0.05 0.05 32 1013.5
20260505200602 21 212 14.5 17.7 0.00 0.05 0.05 33 1013.8
20260505200059 21 214 16.1 20.9 0.00 0.05 0.05 33 1013.8
20260505195555 21 265 19.3 24.1 0.00 0.05 0.05 32 1013.8
20260505195053 21 252 17.7 22.5 0.00 0.05 0.05 33 1013.8
20260505194550 21 286 17.7 22.5 0.00 0.05 0.05 32 1014.0
20260505194045 21 217 12.9 14.5 0.00 0.05 0.05 35 1014.0
20260505193543 21 245 20.9 27.4 0.00 0.05 0.05 34 1013.9
20260505193040 21 304 17.7 25.7 0.00 0.05 0.05 35 1014.2
20260505192538 21 222 12.9 17.7 0.00 0.05 0.05 34 1014.2
20260505192036 21 199 6.4 6.4 0.00 0.05 0.05 35 1014.2
20260505191534 20 171 14.5 16.1 0.00 0.05 0.05 36 1014.3
20260505191031 21 198 12.9 20.9 0.00 0.05 0.05 36 1014.3
20260505190525 21 237 16.1 20.9 0.00 0.05 0.05 34 1014.6
20260505190022 21 66 11.3 14.5 0.00 0.05 0.05 35 1014.7
20260505185519 21 261 14.5 16.1 0.00 0.05 0.05 35 1014.7
20260505185015 21 212 16.1 27.4 0.00 0.05 0.05 35 1014.9
20260505184513 21 273 17.7 22.5 0.00 0.05 0.05 33 1015.0
20260505184009 21 139 3.2 3.2 0.00 0.05 0.05 36 1014.8
20260505183506 21 334 9.7 11.3 0.00 0.05 0.05 37 1015.1
20260505183003 20 151 9.7 12.9 0.00 0.05 0.05 39 1014.9
20260505182500 20 145 8.0 11.3 0.00 0.05 0.05 39 1014.9
20260505181956 20 100 6.4 9.7 0.00 0.05 0.05 40 1014.9
20260505181453 20 212 6.4 11.3 0.00 0.05 0.05 40 1015.1
20260505180950 20 160 6.4 9.7 0.00 0.05 0.05 40 1015.1
20260505180446 20 83 6.4 9.7 0.00 0.05 0.05 40 1015.1
20260505175943 19 215 14.5 20.9 0.00 0.05 0.05 42 1015.1
20260505175439 18 81 1.6 4.8 0.00 0.05 0.05 46 1015.3
20260505174936 18 47 1.6 3.2 0.00 0.05 0.05 47 1015.1
20260505174433 17 357 4.8 6.4 0.00 0.05 0.05 46 1015.3
20260505173929 17 40 3.2 3.2 0.00 0.05 0.05 50 1015.7
20260505173426 17 61 1.6 1.6 0.00 0.05 0.05 50 1015.3
20260505172923 17 66 0.0 0.0 0.00 0.05 0.05 50 1015.3
20260505172421 17 79 4.8 6.4 0.00 0.05 0.05 52 1015.5
20260505171920 16 66 1.6 3.2 0.00 0.05 0.05 54 1015.1
20260505171418 16 62 1.6 1.6 0.00 0.05 0.05 55 1015.4
20260505170914 16 93 3.2 3.2 0.00 0.05 0.05 57 1015.5
20260505170411 15 88 4.8 6.4 0.00 0.05 0.05 58 1015.1
20260505165906 15 117 9.7 12.9 0.00 0.05 0.05 59 1015.6
20260505165402 15 123 8.0 9.7 0.00 0.05 0.05 59 1015.4
20260505164857 15 74 6.4 9.7 0.00 0.05 0.05 60 1015.5
20260505164355 15 91 8.0 11.3 0.00 0.05 0.05 61 1015.4
20260505163853 15 95 6.4 12.9 0.00 0.05 0.05 63 1015.5
20260505163351 15 83 6.4 11.3 0.00 0.05 0.05 63 1015.3
20260505162849 15 105 6.4 9.7 0.00 0.05 0.05 62 1015.5
20260505162345 15 115 4.8 6.4 0.00 0.05 0.05 61 1015.4
20260505161843 15 38 4.8 6.4 0.00 0.05 0.05 62 1015.3
20260505161339 15 45 1.6 3.2 0.00 0.05 0.05 61 1015.3
20260505160837 16 85 3.2 4.8 0.00 0.05 0.05 60 1015.3
20260505160335 15 37 3.2 6.4 0.00 0.05 0.05 61 1015.0
20260505153314 14 78 3.2 4.8 0.00 0.05 0.05 67 1015.1
20260505152811 14 122 8.0 11.3 0.00 0.05 0.05 67 1014.8
20260505152307 14 82 4.8 4.8 0.00 0.05 0.05 67 1014.8
20260505151802 14 76 4.8 4.8 0.00 0.05 0.05 67 1014.9
20260505151259 13 105 3.2 4.8 0.00 0.05 0.05 68 1014.8
20260505150756 13 70 1.6 1.6 0.00 0.05 0.05 69 1014.8
20260505150253 13 71 1.6 3.2 0.00 0.05 0.05 69 1014.7
20260505140223 12 67 1.6 3.2 0.00 0.05 0.05 71 1014.2
20260505130147 12 57 3.2 3.2 0.00 0.03 0.03 81 1014.0
20260505124636 12 61 0.0 0.0 0.18 0.03 0.03 83 1013.9
20260505124133 12 57 1.6 1.6 0.18 0.03 0.03 82 1013.7
20260505123629 12 61 1.6 3.2 0.18 0.03 0.03 81 1013.5
20260505123126 12 86 0.0 1.6 0.00 0.00 0.00 80 1013.3
20260505122622 12 80 3.2 3.2 0.00 0.00 0.00 77 1014.0
20260505122120 12 67 0.0 0.0 0.00 0.00 0.00 76 1013.9
20260505121616 12 68 1.6 3.2 0.00 0.00 0.00 75 1014.1
20260505121113 12 80 3.2 3.2 0.00 0.00 0.00 76 1014.0
20260505120609 12 119 3.2 6.4 0.00 0.00 0.00 75 1014.1
20260505120100 13 88 3.2 3.2 0.00 0.00 0.00 74 1014.0
20260505115600 13 81 1.6 3.2 0.00 0.00 0.00 74 1013.8
20260505115057 13 90 1.6 3.2 0.00 0.00 0.00 74 1013.8
20260505114549 13 65 1.6 1.6 0.00 0.00 0.00 73 1014.0
20260505114045 13 64 0.0 1.6 0.00 0.00 0.00 71 1013.9
20260505113541 13 85 0.0 0.0 0.00 0.00 0.00 68 1014.3
20260505113037 13 69 0.0 0.0 0.00 0.00 0.00 66 1014.6
20260505112535 13 60 0.0 1.6 0.00 0.00 0.00 66 1014.2
20260505112033 13 77 1.6 1.6 0.00 0.00 0.00 64 1014.7
20260505111531 13 69 0.0 1.6 0.00 0.00 0.00 62 1014.8
20260505111028 13 31 3.2 4.8 0.00 0.00 0.00 59 1014.9
20260505110525 13 63 1.6 1.6 0.00 0.00 0.00 57 1014.5
20260505101958 14 53 3.2 3.2 0.00 0.00 0.00 51 1015.3
20260505101455 14 7 4.8 4.8 0.00 0.00 0.00 63 1015.3
20260505100951 14 61 0.0 0.0 0.00 0.00 0.00 59 1015.5
20260505100450 14 333 6.4 6.4 0.00 0.00 0.00 65 1015.5
20260505095945 14 6 8.0 11.3 0.00 0.00 0.00 64 1015.7
20260505095442 14 18 6.4 6.4 0.00 0.00 0.00 64 1015.9
20260505094938 14 31 4.8 4.8 0.00 0.00 0.00 64 1015.8
20260505094435 15 13 6.4 9.7 0.00 0.00 0.00 62 1015.5
20260505093931 15 24 6.4 6.4 0.00 0.00 0.00 57 1015.7
20260505093428 15 358 6.4 9.7 0.00 0.00 0.00 55 1015.7
20260505092925 15 38 3.2 3.2 0.00 0.00 0.00 52 1016.0
20260505092423 15 31 3.2 3.2 0.00 0.00 0.00 50 1016.0
20260505091920 15 62 6.4 9.7 0.00 0.00 0.00 49 1015.9
20260505091418 15 18 3.2 4.8 0.00 0.00 0.00 47 1015.9
20260505090916 15 33 4.8 4.8 0.00 0.00 0.00 48 1015.9
20260505090414 15 325 8.0 12.9 0.00 0.00 0.00 48 1016.4
20260505085911 15 3 4.8 6.4 0.00 0.00 0.00 47 1016.4
20260505085409 15 353 8.0 12.9 0.00 0.00 0.00 46 1016.3
20260505084907 15 312 11.3 12.9 0.00 0.00 0.00 46 1016.2
20260505084405 16 330 8.0 9.7 0.00 0.00 0.00 46 1016.3
20260505083902 16 24 8.0 11.3 0.00 0.00 0.00 45 1016.3
20260505083359 16 24 4.8 6.4 0.00 0.00 0.00 45 1016.7
20260505082856 16 43 6.4 11.3 0.00 0.00 0.00 43 1016.7
20260505082351 16 357 6.4 11.3 0.00 0.00 0.00 42 1016.8
20260505081848 16 58 3.2 6.4 0.00 0.00 0.00 41 1016.7
20260505081345 16 57 4.8 6.4 0.00 0.00 0.00 40 1016.6
20260505080841 16 6 4.8 11.3 0.00 0.00 0.00 39 1016.5
20260505080338 16 55 4.8 4.8 0.00 0.00 0.00 37 1016.4
20260505075833 16 10 6.4 9.7 0.00 0.00 0.00 37 1016.5
20260505075330 16 47 8.0 9.7 0.00 0.00 0.00 36 1016.6
20260505074827 16 66 3.2 4.8 0.00 0.00 0.00 36 1016.7
20260505074324 16 312 4.8 4.8 0.00 0.00 0.00 35 1017.2
20260505073822 16 347 4.8 6.4 0.00 0.00 0.00 34 1017.1
20260505073320 16 321 6.4 9.7 0.00 0.00 0.00 33 1017.2
20260505072817 16 13 6.4 9.7 0.00 0.00 0.00 33 1016.7
20260505072313 16 66 0.0 0.0 0.00 0.00 0.00 34 1016.7
20260505071809 16 59 0.0 1.6 0.00 0.00 0.00 34 1016.7
20260505071306 17 62 0.0 0.0 0.00 0.00 0.00 34 1017.2